sat.trackr.live / text

‹ back to catalog

STARLINK-30501

NORAD 57917 · 2023-147E

PAYLOAD ACTIVE UNKNOWN

§ Identity

Operator
Country
US
Launch date
2023-09-24
Launch site
AFETR
Launch vehicle
Mass (kg)
RCS (m²)

Purposes: comms

External: N2YO · Heavens-Above · Gunter

§ Orbital elements

Epoch: 2026-09-20T02:37:02.796096Z

Period
94.27 min
Inclination
42.9987°
Eccentricity
0.0000737
Mean motion
15.27584757 rev/d
Perigee alt
482.5 km
Apogee alt
483.5 km
Semi-major
6,861.2 km
B*
4.4116e-4
RAAN
307.0772°
Arg perigee
188.8374°
Mean anomaly
171.2465°
Rev number
16,635

§ Raw data

STARLINK-305011 57917U 23147E   26263.10906014  .00011899  00000+0  44116-3 0  99922 57917  42.9987 307.0772 0000737 188.8374 171.2465 15.27584757166350

JSON: /api/v1/satellites/57917 · /tle

For live sub-satellite position, see the globe view (requires WebGL).

§ Visibility from observer

Set your observer location to see the next 7 days of passes ≥ 10°. The values pass through the URL so the page stays shareable.

No JS? Fill the form by hand. The geolocation button needs JavaScript.